Temperature
16 17 17 17 17 17 17 17 17 17 17 17 17 17 17 17 16 16 16 16 16 16 16 16 16 16 16 15 15 15 15 15 15 15 15 15 15 15 15 15 15 15 15
17 17 17 17 17 17 17 17 17 17 17 17 17 16 16 16 16 16 16 16 16 16 16 16 16 16 15 15 15 15 15 15 15 15 15 15 15 14 15 15 15 14 14
17 17 16 17 17 17 17 17 17 17 17 16 16 16 16 16 16 16 16 16 16 16 16 16 16 15 15 15 15 15 15 15 15 15 15 14 14 14 14 15 15 14 14
17 16 16 16 16 16 16 16 16 16 16 16 16 16 16 16 16 16 16 16 16 16 16 16 15 15 15 15 15 15 15 15 15 15 15 14 14 14 14 15 14 15 14
16 16 16 16 16 16 16 16 16 16 16 16 16 16 16 16 16 16 16 16 16 15 15 15 15 15 15 15 15 15 15 15 15 15 15 14 14 14 14 15 14 15 14
16 16 16 16 16 16 16 16 16 16 16 16 16 16 16 16 16 16 16 16 16 15 15 15 15 15 15 15 15 14 14 15 15 14 14 14 14 14 14 14 14 14 14
16 16 16 16 16 16 16 16 16 16 16 16 16 16 16 16 16 16 16 15 15 15 15 15 15 15 15 14 14 14 14 14 14 14 14 14 14 14 14 14 14 14 14
16 15 15 15 15 16 16 16 16 16 16 16 16 16 15 15 15 15 15 15 15 15 15 15 15 15 14 14 14 14 14 14 14 14 14 14 14 14 14 14 14 14 14
15 15 15 15 15 15 15 15 16 16 16 15 15 15 15 15 15 15 15 15 15 15 15 15 14 14 14 14 14 14 14 14 14 14 14 14 14 14 14 14 14 14 14
15 15 15 15 15 15 15 15 15 15 15 15 15 15 15 15 15 15 15 15 15 15 15 15 14 14 14 14 14 14 14 14 14 14 14 14 14 14 14 14 14 14 14
14 14 14 14 14 15 15 15 15 15 15 15 15 15 15 15 15 15 15 15 14 14 14 14 14 14 14 14 14 14 14 14 14 14 14 14 14 14 14 14 14 14 14
14 14 14 14 14 14 14 14 14 14 15 15 15 15 15 15 15 15 14 14 14 14 14 14 14 14 14 14 13 14 14 14 14 14 14 14 14 14 14 14 14 14 14
14 14 14 14 14 14 14 14 14 14 14 14 14 14 15 15 15 14 14 14 14 14 14 14 14 13 13 13 13 13 13 13 13 13 13 13 14 14 13 13 13 13 13
13 13 13 13 13 14 14 14 14 14 14 14 14 14 14 14 14 14 14 14 14 14 14 14 13 13 13 13 13 13 13 13 13 13 13 13 13 13 13 13 13 13 13
13 13 13 13 13 13 13 14 14 14 14 14 14 14 14 14 14 14 14 13 13 13 13 13 13 13 13 13 13 13 13 13 13 13 13 13 13 13 13 13 13 13 13
13 13 13 13 13 13 13 13 13 13 13 13 14 14 13 13 13 13 13 13 13 13 13 13 13 13 13 12 12 12 12 13 13 13 13 13 13 13 13 13 13 13 13
13 13 12 12 12 13 13 13 13 13 13 13 13 13 13 13 13 13 13 13 13 13 13 13 13 12 12 12 12 12 12 12 12 12 12 12 12 12 13 13 13 12 12
12 12 12 12 12 12 12 12 12 12 12 12 13 13 13 13 13 13 13 13 13 12 12 12 12 12 12 12 12 12 12 12 12 12 12 12 12 12 12 12 12 12 12
12 12 12 12 12 12 11 12 12 12 12 12 12 12 12 12 12 13 13 12 12 12 12 12 12 12 12 12 12 12 12 12 12 12 12 12 12 12 12 12 12 12 12
12 12 11 11 11 11 11 11 11 11 11 11 12 12 12 12 12 12 12 12 12 12 12 12 12 11 11 11 11 11 11 11 11 11 11 11 11 11 11 11 11 11 12
11 11 11 11 11 11 11 11 11 11 11 11 11 11 11 12 12 12 12 12 12 12 12 11 11 11 11 11 11 11 11 11 11 11 11 11 11 11 11 11 11 11 11
11 11 11 11 11 10 10 10 11 10 11 11 11 11 11 11 11 11 11 11 11 11 11 11 11 11 11 11 11 10 10 10 10 10 10 11 11 11 11 11 11 11 11
10 10 10 10 10 10 10 10 10 10 10 10 10 10 11 11 11 11 11 11 11 11 11 11 11 11 11 11 11 11 10 10 10 10 10 10 10 10 10 10 10 10 10
10 10 10 10 10 10 10 10 10 10 10 10 10 10 10 10 10 11 11 11 11 11 11 11 11 11 11 11 10 10 10 10 10 10 10 10 10 10 10 10 10 10 10
10 10 10 10 9 9 9 9 10 10 10 10 10 10 10 10 10 10 10 10 10 10 10 10 10 10 10 10 10 10 10 10 10 10 9 9 9 9 9 9 9 9 9
9 9 9 9 9 9 9 9 9 9 10 10 10 10 10 10 10 10 10 10 10 10 10 10 10 10 10 10 10 10 10 10 10 10 10 9 9 9 9 9 9 9 9
Wind_Speed
6 10 16 17 17 17 17 17 16 16 16 16 16 16 17 16 16 16 16 16 16 16 16 16 17 17 18 18 18 18 18 18 18 17 17 16 16 17 17 17 16 16 18
10 14 17 17 17 17 17 17 17 16 16 16 16 16 16 16 16 15 15 15 15 16 16 16 16 17 17 17 17 17 17 17 17 16 16 16 16 16 16 16 16 16 17
12 15 17 18 17 17 17 17 17 16 16 16 16 16 15 15 15 15 14 14 15 15 15 15 15 15 15 15 15 16 16 16 15 15 14 13 14 15 16 16 16 16 16
13 14 15 18 18 17 17 17 17 16 15 15 15 15 15 15 14 15 14 14 14 15 15 14 14 14 14 14 13 14 14 14 13 13 11 11 12 14 15 15 15 15 15
11 14 16 18 17 17 17 17 16 15 15 14 14 15 14 14 14 15 14 14 14 14 14 14 14 13 13 12 12 13 13 13 13 12 12 12 12 14 15 15 15 15 15
9 13 16 17 17 17 16 16 16 15 15 14 14 14 14 14 14 14 14 14 14 14 13 13 13 12 11 11 11 12 12 12 13 12 12 11 11 13 14 14 14 14 14
10 12 15 16 16 16 16 16 16 15 15 14 14 14 14 14 14 14 14 14 14 13 13 13 12 11 10 11 11 11 11 12 12 11 11 11 11 13 13 13 14 14 14
11 11 14 16 15 15 15 15 15 15 14 14 14 14 14 14 14 14 14 13 13 13 13 12 11 10 10 10 10 10 10 10 10 10 10 10 11 12 13 13 13 14 14
10 9 10 13 13 14 14 14 15 14 14 14 14 14 14 14 14 13 13 13 13 12 12 11 11 10 9 9 9 10 10 11 11 9 9 9 11 12 12 12 13 13 12
8 8 8 10 11 11 12 13 14 14 14 14 14 14 14 13 13 13 13 13 12 12 12 11 10 9 9 9 9 10 10 10 10 9 8 9 11 12 12 12 12 12 11
8 7 7 8 9 10 10 11 13 13 13 13 13 13 13 11 11 11 11 12 12 12 12 11 9 8 8 8 8 9 9 9 9 8 8 10 11 11 11 11 11 11 10
9 7 7 7 7 8 9 9 10 10 11 11 11 11 11 11 10 10 11 12 12 12 11 10 9 8 7 6 7 8 8 8 8 7 8 11 11 11 10 10 9 9 9
10 8 7 7 7 7 7 8 8 8 9 9 10 10 10 10 9 9 9 9 9 9 8 8 8 7 6 6 6 7 7 6 6 6 8 10 10 10 9 9 9 8 7
9 8 7 6 6 7 7 7 7 7 7 7 8 9 10 8 7 7 7 8 7 8 7 7 6 6 6 6 6 6 6 6 6 6 8 10 9 9 9 9 8 7 6
9 8 7 7 7 6 6 6 6 6 6 8 8 9 10 8 6 6 7 7 7 8 7 7 6 6 5 5 5 5 5 6 6 6 7 8 9 8 8 8 7 6 6
9 8 8 8 7 7 6 4 5 7 7 8 8 9 10 9 7 6 6 6 6 7 8 7 6 5 4 4 4 4 5 6 6 6 7 7 8 8 7 7 7 6 5
9 8 8 8 7 7 6 6 6 7 7 6 7 9 10 10 9 7 5 5 6 7 8 7 7 6 4 3 2 3 4 5 6 6 7 7 7 7 7 6 5 5 4
8 8 8 8 8 7 6 6 6 7 7 6 7 8 9 10 10 8 5 4 6 7 7 5 4 4 3 3 2 1 2 3 4 5 6 6 6 6 6 5 5 4 3
8 9 8 7 8 7 6 5 6 7 6 7 7 8 8 10 10 9 6 6 7 6 5 4 3 4 4 3 2 1 1 2 2 4 4 4 5 6 6 5 5 4 3
7 8 8 7 7 7 6 5 4 4 4 5 6 7 8 9 10 9 7 6 7 4 3 3 4 4 4 4 4 3 2 1 2 2 3 3 4 5 6 5 5 4 4
6 6 7 7 7 7 5 5 4 4 3 3 4 7 8 8 9 8 6 6 6 4 5 5 4 5 3 4 4 2 3 3 2 1 2 3 3 3 5 5 5 5 4
7 7 7 7 8 7 6 5 4 4 3 3 3 5 7 8 8 7 6 5 5 4 5 5 4 3 2 3 3 3 1 2 2 2 1 1 2 2 3 3 4 5 5
5 7 7 7 7 7 7 5 4 4 3 2 2 3 4 7 7 7 7 6 5 5 5 5 5 5 4 2 2 3 3 3 1 2 1 1 0 1 1 2 3 4 5
5 5 6 7 6 6 7 7 8 6 4 4 3 3 3 6 6 7 7 7 6 5 5 5 4 4 5 3 1 0 2 3 3 1 1 1 1 1 1 0 2 3 4
4 4 5 6 6 6 7 8 8 5 4 3 3 4 3 3 5 6 7 6 5 5 5 5 4 4 4 4 3 2 1 1 2 2 1 1 1 1 1 0 1 2 3
2 3 3 5 5 6 7 7 7 7 6 5 4 4 3 2 2 4 6 6 5 4 5 5 5 5 4 3 3 2 3 2 2 2 2 2 1 1 1 1 1 1 2
Wind_Direction
162 162 150 145 142 140 137 133 130 126 124 122 120 118 116 115 114 114 114 113 111 108 105 101 98 97 97 96 94 92 90 88 86 83 82 84 85 85 83 80 78 76 79
154 156 148 145 142 141 139 134 132 129 126 125 124 122 121 120 119 116 115 113 113 111 108 105 102 100 99 97 95 94 93 91 87 84 81 82 86 88 86 84 82 82 81
143 148 145 143 140 140 140 137 135 132 130 128 128 127 126 125 123 120 118 115 113 112 111 108 105 104 101 99 97 96 94 93 88 82 80 81 86 90 90 88 86 85 83
141 143 144 143 140 139 139 140 138 137 135 132 131 130 129 128 127 125 121 118 115 113 112 111 110 108 104 100 100 99 95 93 89 84 80 79 87 92 92 92 89 87 85
137 140 143 143 141 139 140 142 142 141 140 137 134 133 132 132 130 128 124 122 118 116 116 115 113 111 107 103 101 99 95 94 91 87 83 80 87 92 92 92 89 87 87
132 137 143 142 142 140 140 142 143 143 143 142 140 138 137 136 133 129 128 127 125 123 121 121 119 115 108 106 103 101 97 97 94 91 87 86 90 94 92 92 91 89 88
135 136 142 141 141 141 141 142 144 145 145 145 144 143 141 139 137 133 131 130 130 128 127 127 124 118 112 107 104 102 98 100 98 95 92 91 96 97 94 95 93 91 88
138 137 143 142 141 141 141 143 145 146 146 147 146 145 144 142 140 138 136 134 133 133 133 132 129 124 116 111 105 102 101 105 104 100 99 98 101 102 98 95 94 93 90
132 134 140 142 142 141 141 145 148 148 148 148 147 146 145 144 142 143 142 141 138 137 137 137 134 127 119 113 104 103 107 108 106 106 107 105 106 106 103 99 95 92 92
133 134 137 139 139 140 143 143 146 147 149 148 145 143 143 144 144 145 146 145 143 141 139 139 138 131 124 115 106 106 108 106 107 109 113 117 116 110 106 102 98 95 93
140 141 137 135 138 140 144 146 143 144 146 145 144 143 141 141 142 143 145 148 148 147 145 144 141 137 129 119 113 114 112 108 112 112 117 122 120 113 109 107 104 100 97
158 157 149 142 141 142 146 142 141 142 144 144 145 145 146 147 147 145 144 148 151 152 151 151 147 140 129 118 113 117 118 113 114 120 127 127 124 119 116 114 111 106 101
163 161 157 152 148 146 141 143 140 140 143 146 147 149 149 147 146 145 143 148 149 150 149 152 146 139 129 125 116 120 124 117 119 126 135 134 132 128 124 121 120 115 110
161 165 159 156 152 149 145 147 143 141 145 147 150 150 148 143 144 148 148 151 150 150 148 147 143 139 133 132 128 126 130 126 128 134 140 139 139 136 132 128 126 122 118
163 166 163 157 156 152 145 149 147 150 152 154 152 153 151 147 151 151 152 154 155 153 149 148 143 137 129 127 131 134 133 138 135 136 140 138 140 140 139 134 131 132 129
170 169 164 163 157 149 151 150 149 156 156 153 154 157 156 152 149 150 150 153 157 160 157 152 146 140 134 124 119 128 133 138 143 142 146 149 150 147 145 142 136 131 133
173 168 167 166 155 153 153 154 152 156 153 153 157 160 160 157 154 152 150 152 160 160 153 143 135 131 128 119 113 113 128 139 140 146 150 154 157 155 151 148 141 138 135
165 166 169 166 158 156 152 151 150 153 152 156 158 159 161 163 159 151 150 154 155 149 143 141 136 132 130 130 128 116 110 128 140 148 151 157 160 162 159 156 155 150 142
168 166 166 161 161 159 150 145 146 148 149 154 154 155 159 161 160 154 153 155 151 141 141 147 139 136 134 133 133 114 93 110 134 141 140 154 159 161 160 159 155 156 155
164 162 164 161 162 155 146 137 136 137 140 147 150 156 156 156 157 152 151 152 147 137 133 137 136 128 136 135 115 86 53 50 93 119 147 150 158 162 158 153 150 154 156
159 159 162 162 163 156 157 156 155 163 158 156 152 158 156 153 154 151 149 148 148 147 151 145 133 133 131 126 107 77 28 24 47 64 114 123 129 150 150 156 159 156 161
167 168 168 168 166 165 168 166 156 149 153 158 145 153 156 153 155 157 152 153 152 146 144 144 134 136 144 143 132 123 90 359 354 12 50 118 130 136 138 156 159 162 164
166 173 176 173 166 167 157 141 123 110 103 112 152 168 158 158 157 155 158 156 155 153 158 159 155 151 165 178 149 144 155 197 238 344 357 15 81 97 137 163 168 172 172
178 177 174 169 163 165 158 157 155 158 164 180 176 176 161 160 160 161 160 160 159 156 160 168 167 161 158 172 184 146 143 144 154 170 335 350 11 20 15 138 157 168 166
169 163 165 160 160 160 163 167 167 162 165 152 152 154 164 157 163 166 165 162 163 162 164 164 162 161 167 169 168 154 125 88 109 146 193 282 1 327 337 26 128 161 173
137 134 143 154 159 163 166 169 173 169 160 154 163 169 174 174 166 166 168 166 165 165 169 169 167 169 174 165 161 152 152 157 170 159 180 198 225 297 340 20 45 179 166
Height
1520 1523 1526 1529 1531 1533 1535 1536 1538 1539 1540 1542 1543 1544 1545 1545 1546 1547 1548 1549 1549 1550 1551 1551 1552 1552 1553 1553 1554 1554 1554 1554 1555 1555 1555 1555 1555 1555 1555 1555 1555 1555 1555
1518 1522 1525 1528 1531 1533 1535 1537 1538 1539 1541 1542 1543 1544 1545 1546 1547 1548 1549 1550 1551 1551 1552 1553 1553 1554 1555 1555 1556 1556 1556 1556 1557 1557 1557 1557 1557 1557 1557 1557 1557 1557 1557
1518 1522 1525 1528 1530 1533 1535 1536 1538 1540 1541 1542 1544 1545 1546 1547 1548 1549 1550 1551 1552 1552 1553 1554 1555 1555 1556 1557 1557 1558 1558 1558 1558 1559 1559 1559 1559 1559 1559 1559 1559 1559 1559
1519 1521 1524 1527 1530 1532 1534 1536 1538 1540 1541 1543 1544 1545 1546 1548 1549 1550 1551 1552 1553 1553 1554 1555 1556 1557 1557 1558 1559 1559 1560 1560 1560 1560 1561 1561 1561 1561 1561 1561 1561 1561 1561
1519 1521 1524 1527 1530 1532 1534 1536 1538 1540 1541 1543 1544 1546 1547 1548 1549 1550 1551 1552 1553 1554 1555 1556 1557 1558 1558 1559 1560 1560 1561 1561 1562 1562 1562 1563 1563 1563 1563 1563 1563 1563 1563
1518 1521 1524 1527 1529 1531 1534 1536 1538 1539 1541 1543 1544 1546 1547 1548 1549 1550 1552 1553 1554 1555 1556 1557 1558 1559 1559 1560 1561 1562 1562 1563 1563 1564 1564 1564 1565 1565 1565 1565 1565 1565 1564
1517 1520 1523 1526 1529 1531 1533 1535 1537 1539 1541 1542 1544 1546 1547 1548 1550 1551 1552 1553 1554 1555 1557 1558 1559 1560 1561 1561 1562 1563 1564 1564 1565 1565 1565 1566 1566 1566 1566 1566 1566 1566 1566
1517 1520 1523 1525 1528 1530 1532 1535 1537 1538 1540 1542 1544 1545 1547 1548 1549 1551 1552 1553 1555 1556 1557 1558 1560 1561 1562 1562 1563 1564 1565 1565 1566 1566 1567 1567 1567 1568 1568 1568 1568 1568 1568
1517 1519 1522 1525 1527 1529 1531 1534 1536 1538 1540 1542 1543 1545 1546 1548 1549 1551 1552 1554 1555 1556 1558 1559 1560 1561 1562 1563 1564 1565 1566 1566 1567 1567 1568 1568 1569 1569 1569 1569 1569 1569 1569
1516 1518 1521 1523 1526 1528 1530 1533 1535 1537 1539 1541 1543 1544 1546 1548 1549 1551 1552 1554 1555 1557 1558 1559 1561 1562 1563 1564 1565 1566 1566 1567 1568 1568 1569 1569 1570 1570 1570 1570 1570 1570 1570
1515 1517 1520 1522 1525 1527 1529 1531 1533 1536 1538 1540 1542 1544 1545 1547 1549 1550 1552 1554 1555 1557 1558 1559 1561 1562 1563 1564 1565 1566 1567 1568 1568 1569 1570 1570 1571 1571 1571 1571 1571 1571 1571
1512 1515 1518 1520 1523 1525 1528 1530 1532 1534 1536 1539 1541 1543 1544 1546 1548 1550 1552 1553 1555 1556 1558 1559 1561 1562 1564 1565 1566 1567 1568 1568 1569 1570 1570 1571 1572 1572 1572 1572 1572 1572 1572
1510 1513 1516 1519 1521 1524 1526 1528 1530 1533 1535 1537 1539 1541 1543 1545 1547 1549 1551 1553 1554 1556 1557 1559 1561 1562 1563 1565 1566 1567 1568 1569 1570 1570 1571 1572 1572 1573 1573 1573 1573 1573 1573
1509 1511 1514 1517 1519 1522 1524 1527 1529 1531 1533 1535 1538 1540 1542 1544 1546 1548 1549 1551 1553 1555 1557 1558 1560 1562 1563 1565 1566 1567 1568 1569 1570 1571 1571 1572 1573 1573 1573 1573 1573 1573 1573
1507 1510 1512 1515 1518 1520 1523 1525 1527 1529 1532 1534 1536 1538 1540 1542 1544 1546 1548 1550 1552 1554 1556 1558 1559 1561 1563 1564 1566 1567 1568 1569 1570 1571 1571 1572 1573 1573 1574 1574 1574 1574 1574
1505 1508 1510 1513 1516 1518 1521 1523 1525 1528 1530 1532 1534 1537 1539 1541 1543 1545 1547 1549 1551 1553 1555 1557 1558 1560 1562 1563 1565 1566 1568 1569 1569 1570 1571 1572 1573 1573 1574 1574 1574 1574 1574
1503 1506 1509 1511 1514 1517 1519 1522 1524 1526 1529 1531 1533 1535 1537 1540 1542 1544 1546 1548 1550 1552 1554 1555 1557 1559 1561 1562 1564 1565 1567 1568 1569 1570 1571 1571 1572 1573 1573 1574 1574 1574 1574
1501 1504 1506 1509 1512 1515 1517 1520 1522 1524 1527 1529 1531 1533 1536 1538 1540 1542 1544 1546 1548 1550 1552 1554 1556 1557 1559 1561 1563 1564 1566 1567 1568 1569 1570 1571 1572 1572 1573 1573 1573 1573 1573
1499 1501 1504 1507 1510 1512 1515 1518 1520 1522 1525 1527 1529 1531 1534 1536 1538 1541 1542 1545 1547 1549 1551 1552 1554 1556 1558 1559 1561 1563 1564 1566 1567 1568 1569 1570 1570 1571 1572 1572 1572 1572 1572
1497 1499 1502 1505 1508 1511 1513 1516 1518 1520 1523 1525 1527 1529 1532 1534 1536 1539 1541 1543 1545 1547 1549 1551 1552 1554 1556 1558 1560 1561 1563 1564 1565 1566 1567 1568 1569 1570 1570 1571 1571 1571 1571
1494 1496 1499 1502 1505 1508 1510 1512 1514 1517 1520 1522 1525 1527 1529 1532 1534 1536 1538 1540 1542 1544 1546 1549 1550 1552 1554 1556 1558 1559 1561 1562 1563 1564 1565 1566 1567 1568 1569 1569 1569 1570 1570
1490 1493 1496 1499 1502 1505 1507 1510 1513 1516 1518 1520 1523 1525 1527 1529 1532 1534 1536 1538 1540 1542 1544 1546 1548 1550 1552 1554 1555 1557 1559 1561 1561 1562 1563 1564 1565 1566 1567 1567 1567 1568 1568
1487 1490 1493 1496 1499 1502 1505 1508 1511 1514 1516 1518 1520 1522 1524 1527 1529 1532 1534 1536 1537 1539 1541 1543 1546 1548 1549 1551 1553 1555 1556 1557 1558 1560 1561 1562 1563 1563 1564 1565 1565 1566 1566
1484 1487 1490 1493 1496 1499 1502 1505 1507 1509 1511 1514 1517 1520 1522 1524 1527 1529 1531 1533 1535 1537 1539 1541 1543 1545 1547 1548 1550 1552 1554 1554 1556 1556 1558 1559 1560 1561 1562 1562 1563 1563 1564
1482 1484 1487 1491 1493 1497 1500 1502 1505 1507 1510 1513 1515 1517 1519 1522 1524 1526 1528 1530 1532 1534 1536 1538 1540 1542 1544 1545 1547 1549 1551 1552 1553 1554 1555 1557 1558 1558 1559 1560 1560 1560 1561
1479 1482 1485 1488 1491 1494 1497 1499 1502 1505 1507 1510 1512 1514 1516 1518 1520 1523 1525 1527 1529 1531 1533 1535 1537 1539 1541 1543 1544 1546 1547 1549 1550 1551 1552 1553 1554 1555 1556 1557 1557 1558 1558